Theta_e
310 309 309 310 311 311 308 308 309 310 310 310 310 310 310 311 311 310 310 310 311 311 311 311 311 312 312 313 313 313 313 312 315 316 316 316 316 316 317 317 318 319 327
309 308 308 310 311 310 307 308 309 309 309 309 310 310 310 310 309 308 308 310 310 311 311 311 311 312 312 311 311 311 311 312 312 313 316 315 315 315 316 318 321 321 326
309 310 308 310 311 308 307 308 308 308 309 309 309 309 309 309 307 306 306 306 306 305 305 305 306 307 309 310 310 309 309 310 312 313 313 314 314 315 315 317 320 324 327
309 310 309 311 309 307 307 308 308 308 309 309 309 309 309 308 307 306 303 302 301 300 300 300 300 299 299 300 304 308 308 308 310 312 313 313 314 315 314 313 318 324 324
310 311 311 310 307 307 306 307 308 308 308 308 308 309 308 307 305 300 298 297 296 295 295 294 294 294 294 294 295 302 307 307 308 310 310 312 313 314 314 311 318 320 322
311 311 310 308 307 307 306 307 307 307 308 308 308 308 307 304 300 299 298 297 296 295 294 294 294 293 293 293 293 293 295 305 305 306 309 309 307 309 310 312 313 314 318
311 311 310 308 307 307 307 307 307 307 307 308 307 307 307 302 300 299 299 298 297 296 294 294 293 293 293 292 292 292 292 293 298 305 303 306 306 306 307 308 309 311 315
311 311 310 309 307 307 307 307 307 307 307 307 307 307 307 301 300 299 299 299 297 296 293 293 292 292 292 291 291 291 291 291 292 292 296 295 297 301 304 303 304 308 313
310 310 310 309 308 308 308 308 307 307 307 307 307 307 306 301 300 300 300 300 299 297 295 293 292 292 292 291 291 291 291 291 291 291 291 291 292 292 293 294 299 302 307
310 309 308 310 309 308 308 308 308 307 307 307 307 307 307 302 301 301 301 300 299 298 295 292 291 291 291 291 291 291 291 291 290 290 290 290 290 290 291 291 292 293 297
309 308 307 307 309 310 308 308 308 307 307 307 307 307 306 303 301 301 300 300 299 298 296 293 291 291 291 291 291 291 291 291 290 290 290 290 290 290 290 290 290 290 291
307 306 306 307 307 310 310 309 308 307 307 307 307 307 306 304 301 301 301 300 299 299 297 294 291 291 291 290 290 290 291 291 290 290 290 290 290 290 290 291 291 290 290
306 305 305 306 307 307 308 309 308 307 306 307 307 307 306 305 303 301 300 300 300 299 298 294 291 290 290 290 290 290 290 290 290 290 290 290 289 290 290 292 292 292 291
306 305 305 306 307 307 306 307 306 306 306 306 307 307 306 306 304 301 301 301 300 300 299 296 292 290 290 290 289 289 289 290 290 290 289 289 289 289 289 290 291 292 292
306 305 304 306 307 306 305 305 306 306 307 307 307 307 307 306 305 303 302 301 300 299 298 296 292 290 290 289 289 289 289 289 289 289 289 289 288 288 288 288 290 291 290
305 305 305 306 306 305 306 306 305 305 305 306 308 308 307 306 306 304 303 302 301 300 298 296 292 289 289 289 289 289 288 288 288 288 288 288 288 288 288 288 288 288 289
305 304 304 305 306 305 305 305 305 305 305 305 304 307 307 306 306 305 303 302 301 299 299 297 292 289 289 289 288 288 288 288 288 288 288 288 288 288 288 288 288 288 288
303 303 304 305 305 305 305 305 305 305 304 304 304 304 306 307 306 306 304 303 301 300 298 297 292 289 288 288 288 288 288 287 287 287 287 287 287 287 288 288 288 288 288
301 302 303 304 305 305 304 305 305 305 304 304 303 303 304 306 306 306 305 304 301 300 298 296 291 289 288 288 288 287 287 287 287 287 287 287 287 287 287 287 288 288 288
301 302 303 304 304 304 304 304 304 304 304 304 303 303 303 304 306 306 305 304 301 299 297 296 291 289 288 288 288 287 287 286 287 286 287 287 287 286 287 287 288 288 288
301 302 303 303 304 304 303 304 303 304 303 303 303 303 303 305 305 306 305 303 299 298 296 294 290 288 288 288 287 287 286 286 286 286 287 287 286 286 287 287 287 287 287
301 302 302 303 303 303 303 303 303 302 302 302 302 302 303 304 305 305 304 300 298 297 295 292 289 288 288 288 287 286 286 285 286 287 287 286 286 286 286 286 286 285 284
299 299 299 299 300 300 300 300 301 302 302 302 302 301 302 303 304 303 302 298 297 296 295 292 288 288 288 287 287 286 286 285 285 286 286 286 286 286 286 285 285 285 284
300 300 301 301 302 301 301 300 299 299 299 300 301 300 302 302 302 300 298 297 297 295 294 290 288 287 287 287 286 286 285 285 285 285 286 285 285 286 285 285 285 285 285
300 300 300 302 303 302 302 301 301 300 298 298 300 300 300 300 300 298 298 298 296 294 292 288 287 287 287 287 286 286 285 285 285 286 286 286 286 285 284 284 285 285 285
299 299 300 300 300 302 303 302 301 301 300 298 298 299 299 299 298 298 297 296 294 292 292 288 287 287 287 287 286 285 285 284 285 286 285 286 285 284 284 284 285 285 285
Wind_Speed
16 17 15 14 14 15 16 15 13 11 9 9 8 6 7 8 9 10 12 12 12 13 13 12 13 14 14 16 19 21 23 24 20 23 23 25 26 27 30 33 37 40 37
19 18 17 16 13 14 14 13 11 10 9 8 8 7 7 6 7 8 10 11 12 13 13 14 14 14 15 16 18 19 24 22 22 20 24 24 25 23 25 30 32 33 33
16 17 19 15 13 13 12 11 10 9 8 7 7 7 7 7 6 8 10 11 12 13 13 14 15 16 16 17 19 20 21 22 24 18 15 16 23 29 29 28 29 25 26
10 13 14 13 12 11 11 9 9 8 7 7 6 5 6 5 7 9 10 12 13 13 14 15 16 17 17 17 17 18 19 20 21 24 16 16 22 21 19 33 27 14 12
11 13 12 11 11 11 10 9 8 8 7 7 6 6 6 6 7 9 10 11 13 14 15 16 16 16 16 16 16 16 17 18 19 18 20 23 16 14 14 16 18 15 6
10 11 11 11 11 11 10 9 9 9 8 8 8 7 6 6 8 8 10 11 13 14 15 15 16 17 17 16 16 15 15 15 15 15 15 17 17 16 12 15 19 14 14
13 13 13 13 12 11 11 11 12 11 11 11 10 8 8 8 9 9 10 12 13 13 15 16 17 17 17 16 15 15 14 14 15 15 14 13 14 13 12 11 14 10 9
15 16 16 16 15 14 13 14 14 15 14 13 12 11 11 11 10 11 12 13 14 15 17 17 17 16 15 14 14 13 13 13 13 13 13 14 14 13 13 12 15 14 7
10 15 18 19 19 18 16 17 18 17 17 16 15 15 14 13 12 12 12 13 14 15 16 17 16 14 13 13 12 12 12 12 12 12 13 13 12 11 10 10 10 10 10
13 21 25 26 25 23 21 20 20 21 20 20 19 19 18 17 16 14 14 13 13 14 16 16 15 14 13 13 12 11 11 10 11 12 12 12 12 11 10 10 9 8 8
24 23 24 24 24 28 26 23 22 23 24 24 23 22 21 20 18 16 15 14 14 15 16 16 15 13 12 12 12 11 11 10 10 11 11 12 12 12 11 10 9 8 8
22 23 22 22 22 23 26 25 23 26 26 27 26 26 24 23 21 19 17 16 15 16 16 16 15 14 12 11 10 10 10 10 10 10 11 11 11 11 10 10 9 9 10
24 22 19 18 20 22 24 24 26 28 28 29 30 29 28 26 24 21 20 17 16 16 16 17 16 15 13 12 10 10 9 9 9 9 10 11 11 11 11 10 10 10 10
24 24 19 14 13 13 14 19 19 23 24 26 30 32 31 29 25 23 22 20 18 17 16 16 16 15 14 13 12 12 11 10 9 9 9 10 11 11 11 10 10 10 10
27 27 22 15 13 11 10 16 19 21 21 23 27 32 32 31 28 27 24 21 20 19 18 17 16 14 13 13 13 13 13 12 12 12 11 11 11 11 12 12 11 11 12
27 28 26 17 14 11 16 18 19 20 22 23 25 28 33 34 32 29 26 24 22 21 19 18 17 16 14 13 14 13 13 14 14 13 14 13 13 12 12 12 13 14 11
27 28 26 21 17 16 18 18 20 22 23 23 24 26 29 34 34 32 29 26 23 21 20 20 18 17 15 14 14 16 14 15 15 16 16 16 14 14 14 14 14 14 16
28 27 25 26 24 23 21 22 24 25 26 26 27 26 27 31 35 35 32 28 25 23 21 20 19 18 16 15 15 16 16 16 17 17 16 16 15 14 14 14 13 14 14
29 27 28 30 29 29 27 27 28 29 28 28 28 26 27 29 35 38 35 31 27 24 22 21 19 17 17 16 16 16 17 16 17 17 17 17 15 14 13 13 14 15 15
28 28 29 28 26 24 26 29 32 31 30 28 27 27 28 29 33 37 36 32 28 24 23 21 19 18 17 16 17 17 17 17 16 15 15 15 14 14 12 12 14 16 17
29 26 25 25 24 25 27 30 30 29 27 27 27 28 28 28 29 32 34 32 27 25 23 21 20 17 17 16 17 17 17 17 16 15 13 14 14 14 13 13 15 16 18
30 27 26 25 25 27 29 29 29 26 27 28 29 29 28 27 26 29 31 30 27 24 22 21 20 19 17 17 17 18 18 17 17 15 16 15 16 16 16 17 16 18 18
31 29 29 30 29 28 29 32 31 30 30 31 30 28 26 25 25 27 29 28 26 24 23 21 21 19 18 16 17 18 18 18 18 16 17 17 17 18 17 15 18 17 16
33 32 31 30 31 30 29 29 29 30 31 30 27 26 24 23 23 26 27 26 25 24 23 21 21 19 17 17 16 17 18 18 17 18 16 15 16 16 19 18 16 15 15
32 32 32 31 32 32 31 29 29 29 30 29 26 25 24 22 23 25 26 24 24 21 20 20 19 19 18 16 17 17 17 16 15 15 17 17 15 15 15 15 14 14 15
33 33 33 34 33 32 32 29 28 27 28 27 25 24 23 22 24 25 26 25 24 19 19 21 20 19 18 18 18 18 17 16 14 17 18 16 15 16 16 15 15 15 17
Wind_Direction
237 241 248 264 275 294 305 309 313 315 317 323 324 309 314 320 336 342 347 350 352 354 358 2 2 360 350 339 334 333 330 331 322 308 299 290 285 281 277 274 265 257 259
229 231 242 257 269 289 300 302 306 310 313 315 324 327 332 344 352 0 0 2 2 2 2 360 358 353 346 341 338 339 336 333 328 311 307 304 300 293 289 275 260 254 254
229 221 233 245 265 282 291 292 299 303 305 321 332 334 334 338 346 346 350 354 355 357 356 354 352 350 346 344 345 344 343 335 335 321 312 314 301 308 298 302 270 246 249
195 201 216 235 260 272 283 286 294 302 308 311 314 315 318 319 328 340 347 350 349 345 345 344 344 345 348 346 344 347 349 348 338 333 311 311 312 312 317 313 282 251 254
181 193 214 242 257 270 280 281 289 297 293 290 292 296 300 306 321 334 341 339 336 338 340 340 338 337 338 338 340 339 340 343 345 342 344 332 334 341 316 309 324 335 8
211 219 239 252 260 269 282 285 287 287 280 272 275 276 285 299 316 323 327 332 336 336 335 335 336 337 336 335 335 333 332 332 339 348 341 354 4 352 348 324 324 337 340
237 244 254 261 262 269 281 287 286 283 272 264 264 267 276 287 299 310 320 327 329 332 335 338 339 337 336 335 334 333 331 332 331 335 341 345 352 349 350 338 333 316 310
248 254 261 263 264 266 275 281 281 277 271 265 263 265 274 281 292 306 316 323 329 333 337 338 337 337 338 339 339 338 335 333 332 334 332 341 341 345 349 350 346 336 317
280 275 275 274 269 265 273 276 276 276 272 268 264 263 266 273 282 292 302 311 319 326 330 332 333 335 337 340 343 344 343 339 336 333 334 333 334 340 344 345 339 341 323
321 312 302 286 272 264 265 273 278 276 273 267 263 260 261 265 271 279 289 299 310 320 325 328 330 331 333 335 338 342 343 343 340 341 343 344 345 345 346 346 344 338 322
303 299 295 292 282 263 261 265 278 279 273 268 263 259 259 262 267 273 281 292 303 313 321 324 324 324 325 328 330 334 339 343 347 345 345 346 347 348 348 347 344 339 331
310 306 301 290 282 274 262 261 279 283 279 267 262 259 257 259 264 269 274 283 295 305 313 318 318 318 319 319 321 326 331 336 341 345 347 347 349 348 349 349 348 345 341
326 322 307 298 293 284 266 261 283 287 280 267 259 256 254 255 260 263 268 275 285 295 306 314 315 313 313 311 314 319 324 326 329 333 337 340 343 344 343 343 339 334 335
334 333 320 311 312 311 276 272 288 291 284 271 261 257 256 256 258 261 264 270 277 285 295 303 305 303 303 307 309 314 316 316 318 322 324 325 327 329 329 332 330 330 326
334 337 327 312 311 302 297 302 301 298 290 279 268 261 257 254 254 257 261 266 272 279 287 294 297 292 289 294 299 304 307 309 311 314 315 315 315 315 312 314 320 324 320
329 331 337 317 313 310 312 309 307 304 296 289 280 268 255 250 250 253 255 259 265 272 280 288 291 286 285 287 292 297 298 301 304 307 307 309 311 309 305 302 301 302 308
325 326 323 321 303 304 305 303 299 301 298 294 291 282 264 252 250 252 253 255 260 266 274 282 286 283 279 281 286 291 294 294 296 301 303 305 304 304 304 304 301 296 291
319 318 321 313 304 296 297 301 298 293 297 295 291 286 275 258 249 249 250 252 255 261 266 274 280 278 274 276 278 283 287 288 291 295 297 298 297 297 301 306 305 299 299
318 314 310 311 306 295 292 295 297 293 292 295 295 291 282 268 251 246 246 247 250 256 262 269 273 274 272 273 276 277 282 286 289 293 295 293 290 290 300 302 298 302 298
319 318 317 308 304 306 299 295 295 290 288 294 294 289 283 272 258 248 244 244 246 251 256 265 269 269 267 271 275 276 280 283 286 289 293 294 281 293 296 296 299 299 298
329 330 323 320 318 316 313 308 304 297 295 292 290 290 286 277 263 248 240 239 242 250 255 262 267 263 266 270 273 276 279 279 283 288 287 287 289 298 296 292 283 284 293
339 339 331 325 320 318 315 312 308 305 296 294 295 293 289 279 259 243 235 234 239 246 254 261 265 264 265 268 272 277 279 277 279 280 281 287 291 300 296 290 284 297 298
344 339 331 326 325 323 316 309 308 301 295 293 293 289 284 276 258 240 230 232 240 246 253 259 264 262 265 270 274 279 281 280 277 277 282 283 287 285 289 285 304 303 300
346 341 339 337 336 335 329 322 316 305 298 295 291 286 281 272 250 231 232 237 245 248 255 261 263 261 263 271 275 276 279 278 281 286 286 287 289 286 289 296 303 303 300
341 339 333 329 329 329 328 328 321 314 306 295 289 285 276 263 246 238 241 246 251 253 261 267 263 262 269 275 273 275 276 279 289 293 287 289 291 290 291 294 300 300 300
332 330 329 328 325 323 325 327 320 316 314 305 293 286 273 257 246 243 245 247 247 252 257 265 261 264 270 274 274 278 283 283 276 277 279 277 280 282 287 291 297 296 300